Tracking 18984 objects as of 24-Feb-2018
HD Live streaming from Space Station
objects crossing your sky now

FENGYUN 1C DEB

Track FENGYUN 1C DEB now!
10-day predictions


NORAD ID: 31763
Int'l Code: 1999-025CFN
Perigee: 674.9 km
Apogee: 1,537.5 km
Inclination: 98.5 °
Period: 107.2 minutes
Semi major axis: 7477 km
RCS: 0.0081 m2 (small)
Launch date: May 10, 1999
Source: People's Republic of China (PRC)
Launch site: Taiyaun Space Center, China (TSC)

Note: This is SATELLITE DEBRIS
aabbcc
Your satellite tracking list
Your tracking list is empty




NASA's NSSDC Master Catalog

Two Line Element Set (TLE):
1 31763U 99025CFN 18054.86623453  .00000207  00000-0  15707-3 0  9992
2 31763  98.5026 189.7564 0576810 187.2358 328.2838 13.42749908528481
Source of the keplerian elements: AFSPC